sat.trackr.live / text

‹ back to catalog

STARLINK-30360

NORAD 57776 · 2023-134F

PAYLOAD ACTIVE UNKNOWN

§ Identity

Operator
Country
US
Launch date
2023-09-04
Launch site
AFETR
Launch vehicle
Mass (kg)
RCS (m²)

Purposes: comms

External: N2YO · Heavens-Above · Gunter

§ Orbital elements

Epoch: 2026-09-20T22:25:39.214560Z

Period
94.27 min
Inclination
43.0035°
Eccentricity
0.0001017
Mean motion
15.27575698 rev/d
Perigee alt
482.4 km
Apogee alt
483.8 km
Semi-major
6,861.2 km
B*
5.3333e-5
RAAN
172.1383°
Arg perigee
266.1288°
Mean anomaly
93.9447°
Rev number
16,936

§ Raw data

STARLINK-303601 57776U 23134F   26263.93448165  .00001206  00000+0  53333-4 0  99932 57776  43.0035 172.1383 0001017 266.1288  93.9447 15.27575698169362

JSON: /api/v1/satellites/57776 · /tle

For live sub-satellite position, see the globe view (requires WebGL).

§ Visibility from observer

Set your observer location to see the next 7 days of passes ≥ 10°. The values pass through the URL so the page stays shareable.

No JS? Fill the form by hand. The geolocation button needs JavaScript.